Tracking 27111 objects as of 28-Mar-2023
HD Live streaming from Space Station
objects crossing your sky now

STARLINK-30050

Track STARLINK-30050 now!
10-day predictions
STARLINK-30050 is classified as:


NORAD ID: 55695
Int'l Code: 2023-026A
Perigee: 372.1 km
Apogee: 373.1 km
Inclination: 43.0 °
Period: 91.9 minutes
Semi major axis: 6743 km
RCS: Unknown
Launch date: February 27, 2023
Source: United States (US)
Launch site: AIR FORCE EASTERN TEST RANGE (AFETR)
Your satellite tracking list
Your tracking list is empty




NASA's NSSDC Master Catalog

Two Line Element Set (TLE):
1 55695U 23026A   23087.00001157  .00155601  00000-0  13579-2 0  9992
2 55695  43.0032 115.9395 0000747 297.0240 198.4548 15.67720173  5428
Source of the keplerian elements: AFSPC